Theta_e
334 334 334 334 334 334 334 334 334 334 334 333 332 332 332 332 332 332 331 331 331 331 331 330 329 329 330 330 331 331 331 331 331 331 331 331 331 331 331 331 332 331 331 330 330 329 330 330 329 329 329 329 329 330 330 331 330 330 330 330 329 329 329
333 333 333 333 333 333 334 333 333 333 333 333 333 333 332 331 331 331 330 330 330 331 331 329 328 328 328 329 330 331 331 330 330 330 331 331 331 331 331 331 331 331 331 331 330 329 329 330 330 329 329 330 330 330 330 330 330 330 330 330 329 329 329
331 332 332 332 332 332 332 332 332 332 332 332 332 333 332 331 331 331 330 330 330 330 330 329 328 327 327 327 328 329 330 329 329 329 330 329 330 331 331 331 332 330 330 330 329 329 329 330 330 330 329 330 329 329 329 330 330 330 330 330 330 329 329
329 329 330 331 331 331 331 331 331 331 331 331 331 332 331 331 331 331 330 330 330 329 329 328 328 328 328 327 327 329 329 329 329 329 329 329 330 331 331 331 331 330 329 329 328 328 329 330 330 330 329 329 329 329 329 329 329 330 330 331 330 329 329
325 326 327 327 328 328 328 329 331 331 330 329 330 330 330 330 330 330 330 330 329 329 328 328 328 328 328 327 328 328 329 329 329 329 329 329 329 330 331 331 330 329 328 327 326 326 328 329 330 330 329 329 330 329 329 329 330 329 330 331 330 329 329
322 324 324 325 325 325 325 327 328 329 328 328 328 328 328 329 329 329 329 329 329 329 329 328 328 328 328 328 328 328 328 328 328 329 329 329 329 330 330 331 331 330 328 327 326 327 328 329 330 331 330 329 329 329 329 329 330 329 330 330 330 329 329
319 320 321 322 322 323 324 324 325 326 326 327 327 326 326 327 327 327 327 327 328 328 328 328 328 328 328 328 328 328 328 328 328 329 329 329 329 330 330 331 331 330 329 327 327 328 329 330 330 330 330 329 330 330 329 329 330 330 330 330 329 329 329
318 317 318 318 318 320 321 322 323 324 325 325 325 325 325 325 326 326 326 325 326 327 327 328 328 328 329 329 328 328 328 328 328 328 328 328 329 329 330 330 331 330 329 327 328 329 330 330 330 329 329 329 330 330 329 329 330 330 330 330 329 329 329
316 316 315 315 316 317 318 319 320 320 321 321 321 322 322 322 323 324 324 325 326 326 326 326 327 328 329 328 328 328 328 328 328 328 328 328 328 329 330 330 330 330 329 328 327 328 329 330 330 329 329 329 329 329 329 330 330 330 330 330 330 329 329
315 314 314 314 314 315 315 316 316 317 317 318 318 319 319 320 320 320 321 323 324 325 325 326 326 327 328 328 328 328 327 327 327 327 327 328 327 328 329 330 330 330 328 328 328 327 328 330 330 330 330 331 330 329 329 330 330 329 329 329 330 330 329
313 313 313 313 313 313 313 313 314 314 314 315 315 316 317 317 318 318 319 320 321 322 324 324 325 326 327 327 327 327 326 326 327 327 327 328 327 328 328 328 330 330 329 329 329 328 328 329 329 329 330 330 330 330 330 329 329 329 328 329 329 330 330
312 312 312 312 312 312 312 312 312 313 313 313 313 314 314 314 315 316 318 319 319 319 320 322 323 324 325 326 326 326 326 326 326 327 327 328 328 328 328 328 329 330 330 330 329 329 328 328 329 329 330 329 329 330 330 330 330 329 328 329 329 329 329
310 310 310 311 311 311 311 312 312 312 312 312 312 312 312 313 313 314 315 316 317 318 318 319 320 322 323 324 324 324 325 326 325 326 327 328 328 327 328 328 328 329 329 329 329 329 329 329 329 329 330 329 329 329 329 330 330 329 329 329 329 329 329
309 309 309 309 310 310 311 311 311 311 311 311 312 312 312 312 312 313 313 313 315 316 317 318 318 319 320 321 322 323 323 324 325 325 326 327 328 328 328 328 328 328 329 329 329 329 329 329 330 330 330 330 329 329 329 329 330 329 329 329 329 329 329
308 308 308 309 309 310 310 310 310 311 311 311 311 311 311 312 312 312 313 313 313 314 314 315 316 317 317 318 319 320 321 322 323 324 325 327 327 327 327 327 328 328 328 329 329 329 330 330 330 330 329 329 329 329 329 329 329 329 329 329 329 329 330
307 307 307 308 308 308 309 309 309 310 310 310 310 311 311 311 311 312 312 313 313 313 313 313 314 314 314 315 316 317 318 320 321 322 323 325 327 327 328 328 328 328 328 329 329 329 330 331 331 330 329 329 328 328 330 329 329 329 329 329 329 329 330
306 306 306 306 306 307 307 308 308 309 309 310 310 310 310 310 310 311 311 311 312 312 312 312 312 312 312 313 313 314 314 315 317 320 322 325 326 326 327 328 327 328 328 328 328 329 329 330 331 330 329 328 328 328 328 329 329 330 329 329 329 329 329
304 305 305 305 305 306 306 306 307 307 308 309 309 309 310 309 309 309 309 310 310 310 311 311 311 311 311 312 312 313 313 313 314 316 319 322 324 325 326 327 327 327 327 328 328 328 329 330 331 330 329 329 328 328 329 329 329 329 330 329 329 328 328
303 303 303 304 304 304 304 304 305 305 306 307 308 308 308 308 308 308 308 308 308 308 309 309 309 309 310 311 312 312 313 313 314 314 315 319 322 324 325 326 327 327 327 327 328 328 328 329 330 331 330 329 328 328 329 329 329 329 329 329 329 328 328
302 301 301 302 302 303 303 303 303 304 304 305 305 305 305 306 306 306 306 307 307 307 307 307 307 308 308 309 310 311 312 313 314 314 314 316 319 321 323 325 326 326 327 327 327 327 328 328 329 330 330 329 327 327 328 329 329 329 328 329 329 328 328
301 300 300 300 301 301 300 301 302 302 303 303 303 302 303 303 304 304 304 305 305 305 305 305 306 306 306 308 309 310 312 313 313 314 314 314 316 319 321 322 323 325 326 327 327 327 328 328 329 329 330 329 328 328 328 328 328 328 328 328 329 329 329
300 299 299 299 300 300 299 300 300 301 301 301 301 301 301 302 302 302 302 302 303 303 304 304 303 303 304 306 307 308 310 311 312 313 314 314 315 317 319 320 321 323 325 326 327 327 327 328 328 329 329 329 329 330 329 329 328 328 328 328 329 328 329
298 298 298 298 298 298 298 299 299 299 300 300 300 300 300 300 301 300 301 301 301 301 302 302 302 302 303 304 305 307 308 309 310 311 312 313 314 316 317 319 320 322 323 325 326 327 327 328 328 329 329 329 330 330 330 330 330 329 329 329 328 328 328
297 297 297 297 297 297 298 298 298 298 299 299 299 300 300 300 299 299 299 299 299 299 300 300 300 301 302 303 304 305 306 307 309 310 311 311 313 314 316 318 320 321 323 324 325 326 327 327 328 328 329 329 329 330 330 330 330 330 329 329 329 329 328
298 298 297 297 297 297 297 297 297 298 298 298 298 298 298 298 298 298 298 298 298 298 298 298 299 300 301 302 303 304 305 306 307 308 309 310 311 313 314 316 318 320 322 323 324 325 326 327 328 328 328 328 329 329 330 330 331 330 329 329 329 329 329
298 298 297 297 296 296 297 297 297 297 297 297 297 297 297 297 297 297 297 297 297 297 297 298 298 299 299 300 302 303 304 305 305 306 308 309 310 311 313 315 317 319 321 322 323 324 324 325 327 327 328 328 328 328 329 330 330 330 330 329 329 329 329
298 298 298 297 297 296 297 297 297 297 297 297 297 297 297 297 296 296 296 296 296 296 296 297 297 298 298 299 300 302 303 304 304 305 306 307 308 309 310 312 314 317 319 321 322 323 324 324 325 326 327 327 327 327 328 329 329 329 329 329 328 328 328
298 298 298 298 298 297 297 297 297 297 296 296 296 296 296 296 296 296 296 296 296 296 296 296 296 297 298 298 299 300 301 302 303 304 305 305 306 307 308 310 312 314 317 319 321 322 322 324 325 325 326 326 326 326 327 328 328 328 328 328 328 328 328
298 298 298 298 298 297 297 297 297 297 297 297 297 296 296 297 297 297 296 296 295 294 294 294 295 296 297 298 298 299 300 301 302 303 304 304 305 306 306 308 309 311 313 316 318 320 320 322 324 325 326 326 326 326 327 327 327 326 326 327 327 325 325
298 298 298 298 298 297 297 297 297 297 297 297 297 297 297 297 297 297 296 295 294 293 293 293 294 295 296 297 297 298 299 300 300 302 302 303 304 305 305 306 307 309 311 313 316 317 319 320 323 324 325 326 326 326 326 327 327 327 327 328 326 324 325
298 298 298 298 298 297 297 297 297 297 297 297 297 297 297 297 297 296 296 294 293 293 293 293 294 295 296 296 296 297 298 298 299 300 301 302 303 303 304 305 306 307 309 311 313 314 316 318 321 323 324 325 326 326 326 326 327 328 328 328 327 327 327
298 298 298 298 298 298 297 297 297 297 297 297 297 297 297 297 296 296 295 294 293 293 294 293 293 294 295 296 296 296 297 297 298 298 299 301 302 302 303 304 304 305 306 308 310 312 314 316 319 321 323 323 324 325 325 326 327 327 328 327 328 328 327
298 298 298 298 298 298 297 297 297 296 296 296 297 297 297 296 296 295 294 294 293 293 294 293 293 294 294 295 296 296 296 297 297 298 298 299 300 301 302 302 303 304 305 306 308 311 313 315 317 320 322 323 324 325 325 325 326 327 327 327 327 327 325
298 298 298 298 298 297 297 297 297 296 296 296 296 296 296 296 295 294 293 293 294 293 293 293 294 293 294 294 295 296 296 296 297 297 298 298 299 299 300 301 302 303 304 305 307 309 312 314 316 319 322 324 324 324 324 324 325 326 326 327 327 327 325
298 298 298 298 298 298 297 297 297 296 296 296 296 296 296 295 294 293 293 293 293 293 293 293 293 293 293 293 294 295 296 296 296 297 297 298 298 298 299 300 301 302 303 305 307 308 310 313 316 318 321 323 325 324 324 324 325 325 326 326 327 327 326
298 298 298 298 298 297 297 297 297 296 296 296 296 296 296 295 295 294 294 293 292 293 293 293 293 293 293 292 293 294 295 296 296 297 297 297 298 298 299 300 300 302 303 304 306 307 308 310 314 317 321 323 323 324 324 324 324 325 325 325 325 324 325
298 298 298 298 298 297 297 297 297 297 296 296 296 296 296 295 295 295 294 293 293 293 293 293 293 293 292 292 292 293 295 296 296 297 297 297 297 298 299 300 300 301 302 304 305 307 307 308 310 315 319 321 320 320 322 323 323 323 324 323 322 321 321
Wind_Speed
7 6 7 8 9 9 9 10 10 8 7 9 11 12 12 12 12 14 16 18 20 20 20 18 17 18 19 19 20 20 20 23 27 29 28 27 30 34 36 36 35 33 32 30 27 24 20 20 23 27 28 28 29 29 29 27 26 25 25 24 22 21 20
7 6 7 9 11 11 11 12 13 11 9 9 10 11 13 13 13 15 17 19 20 20 18 17 16 16 17 19 19 18 19 20 22 24 27 28 29 32 34 36 35 32 31 31 29 26 23 21 21 23 25 27 29 29 29 29 28 27 26 26 24 22 21
9 9 9 11 12 13 12 12 13 13 12 11 10 10 11 12 12 13 15 18 19 19 18 17 16 15 17 18 18 18 19 20 21 22 24 25 28 31 33 34 33 31 29 29 30 30 27 24 23 23 22 24 26 26 28 30 30 29 28 27 27 25 23
11 12 11 12 13 13 13 11 11 12 12 13 13 11 10 10 11 11 13 15 17 18 18 18 17 16 17 18 18 18 19 20 21 21 21 22 24 27 30 31 31 30 29 29 29 30 30 29 27 26 24 22 21 21 23 27 29 29 29 28 28 28 25
7 9 11 12 13 14 14 12 11 12 14 16 14 12 11 10 10 11 12 13 14 16 17 17 17 17 17 18 18 18 19 20 21 21 21 22 22 24 26 27 28 29 31 30 28 29 31 32 31 28 25 22 20 19 19 23 27 30 30 30 29 29 26
1 4 7 10 12 13 13 13 13 14 16 16 14 13 13 11 11 12 13 13 13 14 15 16 17 18 18 18 18 19 20 20 21 21 22 21 21 21 22 23 27 31 33 30 29 30 31 31 32 31 26 23 22 20 18 20 24 28 30 30 30 29 27
3 2 1 3 5 7 10 12 13 15 16 16 15 15 16 14 13 14 14 14 14 14 15 16 16 17 18 18 19 19 20 20 21 22 22 21 20 21 20 20 24 30 33 30 30 32 31 30 31 31 29 26 24 22 20 20 22 26 29 30 30 30 29
5 6 5 4 2 1 4 6 9 11 13 14 14 15 16 17 16 16 16 15 16 15 15 16 16 16 16 18 19 19 20 20 20 21 21 20 20 22 21 19 20 25 29 29 29 30 31 31 29 29 31 31 28 25 24 23 23 26 28 28 29 31 31
6 7 7 6 4 2 1 2 5 7 9 11 12 13 14 16 17 17 17 17 17 17 16 16 16 16 16 16 18 19 19 19 19 20 20 20 20 22 22 19 19 21 24 26 28 28 29 30 29 29 32 33 31 28 27 26 27 28 27 28 29 31 32
7 7 7 7 5 4 3 2 3 4 6 8 10 11 12 13 15 16 17 17 17 17 18 17 17 18 17 17 17 18 18 17 18 19 19 19 19 20 21 20 20 21 22 25 27 27 28 29 29 29 31 32 31 30 29 28 30 30 28 28 30 31 32
7 7 7 7 6 5 6 5 5 4 5 6 7 9 10 12 13 14 15 16 16 17 19 20 19 20 20 20 19 19 18 17 17 17 18 18 18 18 19 20 23 23 23 24 26 27 28 29 31 31 32 32 31 32 32 30 30 31 29 29 30 32 32
8 8 8 8 7 7 8 8 7 7 6 7 7 8 9 10 10 11 12 13 14 16 19 20 19 21 22 22 22 21 20 19 18 17 17 17 17 17 17 19 22 24 25 25 26 27 29 30 31 32 33 34 33 34 34 32 31 31 28 28 29 31 32
10 9 9 10 9 9 10 9 9 9 8 8 8 9 9 10 10 10 10 11 13 15 18 19 19 20 21 21 22 22 22 22 21 19 18 17 16 16 18 19 21 23 25 27 28 28 29 30 31 32 33 34 34 35 34 33 33 32 29 26 26 28 30
12 12 12 12 12 11 11 11 11 10 10 10 11 11 11 11 11 11 11 11 13 14 17 19 19 21 22 22 22 23 23 24 23 22 20 19 17 16 18 19 20 21 22 25 27 29 30 31 32 33 33 33 34 35 35 34 34 33 30 28 26 26 28
14 14 14 14 14 14 13 13 13 12 12 12 13 13 14 14 14 13 12 12 13 14 17 18 19 21 23 24 24 23 23 24 25 24 23 21 19 16 17 19 20 21 21 24 26 28 31 32 33 34 33 33 34 34 35 35 34 32 31 30 28 27 27
15 16 16 17 16 16 15 15 14 14 13 13 14 15 16 16 16 16 15 15 14 15 17 18 19 21 23 25 26 26 25 25 25 25 24 23 21 19 18 19 20 20 21 23 25 27 30 31 33 34 32 32 33 34 34 34 33 33 32 31 30 28 28
18 19 20 20 19 18 17 17 16 16 15 14 14 15 16 17 17 18 18 18 18 18 19 20 21 22 24 25 26 27 26 27 27 25 24 23 22 21 21 21 20 19 19 21 24 25 27 29 32 34 32 31 32 33 33 34 33 33 33 33 32 31 30
22 22 22 22 22 21 20 19 19 19 17 16 16 16 17 17 18 19 20 20 20 20 21 23 23 24 25 26 26 26 25 25 26 26 26 24 22 21 22 23 23 21 20 21 23 25 26 28 31 33 32 30 32 33 33 33 33 32 33 35 34 33 33
26 25 24 24 23 22 22 22 22 22 21 20 20 20 20 20 21 21 22 22 22 22 23 24 25 26 27 27 28 27 26 24 23 24 25 26 25 23 21 23 24 24 23 22 23 24 25 27 30 33 33 31 32 33 33 34 33 31 32 35 36 35 34
27 27 26 25 24 24 25 24 24 24 24 24 25 25 24 24 24 24 24 24 24 25 25 26 27 28 29 30 30 30 28 26 24 22 22 24 27 27 24 23 23 24 23 23 24 24 25 27 29 33 35 33 33 35 35 34 34 33 32 34 37 37 35
27 26 26 26 26 26 27 27 27 26 26 27 28 28 28 28 28 27 26 26 26 26 27 28 30 31 31 31 32 32 31 29 27 24 22 20 22 26 27 26 24 23 23 23 24 24 25 26 28 31 35 35 34 36 36 35 35 35 34 34 36 38 37
26 25 25 26 26 27 29 29 29 28 28 29 30 31 31 31 31 30 30 29 29 29 29 31 33 34 33 32 32 33 32 30 29 28 25 22 19 21 25 27 26 24 23 23 24 25 26 27 27 28 31 33 33 35 35 35 35 36 36 36 38 40 39
28 27 26 26 26 27 29 29 29 29 29 31 31 32 32 31 32 32 32 32 32 32 32 33 33 33 32 32 31 31 31 31 29 28 27 25 21 19 21 24 25 25 24 24 25 26 26 26 27 28 29 31 33 35 36 36 36 37 38 39 40 40 40
30 30 29 28 27 28 29 29 29 29 30 31 31 31 31 31 32 32 33 33 34 34 34 35 34 34 33 32 30 29 29 30 29 27 26 26 24 22 21 22 24 24 24 25 25 25 26 27 28 29 30 31 34 36 38 38 38 39 40 39 39 40 41
29 31 31 30 29 28 29 29 30 30 31 31 31 31 31 32 33 33 34 35 35 36 36 36 36 35 34 33 32 30 28 28 29 28 26 25 25 24 23 23 23 23 23 24 24 25 26 27 28 29 31 32 34 37 39 40 39 39 40 39 38 40 41
29 30 31 30 29 29 29 30 30 31 31 31 31 32 32 33 33 34 35 36 36 37 38 38 37 37 36 35 33 31 29 28 28 28 27 26 25 24 24 23 23 24 23 23 23 24 25 26 28 30 31 32 34 37 39 40 40 39 39 37 37 38 39
29 30 30 30 29 30 30 30 30 30 30 31 32 32 33 33 34 34 35 36 37 37 38 38 38 38 38 36 34 32 30 29 28 27 28 28 26 25 24 24 23 24 24 23 23 23 24 25 26 28 30 32 34 36 39 40 41 40 38 35 35 36 35
29 29 29 29 29 30 30 30 30 30 29 30 31 32 32 33 34 35 36 36 37 38 38 38 38 38 39 38 37 34 32 31 29 28 27 28 28 27 25 25 24 24 25 24 23 24 25 25 26 28 30 32 34 35 38 40 40 40 38 35 33 33 32
29 29 29 29 29 30 30 29 29 28 29 30 30 31 32 33 34 35 36 37 38 38 38 38 38 37 38 38 38 37 35 33 32 30 29 29 29 28 27 26 25 25 25 25 25 26 26 27 29 30 31 33 34 34 37 38 38 38 37 34 30 29 30
29 29 29 30 29 30 29 29 28 28 28 29 30 31 32 32 33 34 36 37 39 39 39 38 37 36 36 38 39 39 38 37 35 34 32 31 31 30 28 28 28 26 25 24 26 27 27 28 30 31 31 32 32 33 35 35 35 37 37 34 29 28 29
27 28 29 30 30 30 30 30 29 29 29 29 30 31 32 32 33 34 35 37 39 39 40 39 38 36 35 36 38 39 39 39 38 37 35 33 32 31 30 29 30 29 27 25 25 26 27 28 31 32 31 31 31 33 33 32 33 35 36 33 31 29 28
26 27 29 30 30 30 30 30 30 30 30 29 30 30 31 31 32 34 35 37 38 39 40 40 40 38 36 35 36 38 39 40 39 39 38 36 34 33 32 31 31 32 32 30 28 26 25 26 29 32 32 31 32 33 32 30 31 33 33 32 31 30 28
25 26 27 29 29 30 30 30 30 30 30 30 30 31 31 31 33 35 37 38 39 40 40 41 41 41 38 36 36 37 39 40 41 40 39 38 36 35 35 36 35 35 35 35 34 30 26 24 26 30 31 32 35 35 31 29 30 32 32 32 31 31 30
23 24 26 27 28 29 30 30 30 31 31 32 31 32 32 33 35 38 38 38 38 39 40 41 41 42 42 39 37 36 38 39 40 40 40 40 37 35 37 39 39 39 37 37 37 36 30 24 22 25 29 32 35 35 31 29 31 32 33 33 33 33 33
22 22 24 26 27 28 29 29 29 30 32 32 33 33 34 35 38 41 41 39 38 39 40 41 41 42 43 42 39 37 36 37 38 39 41 42 38 34 34 37 39 38 35 34 36 37 34 28 22 21 24 28 32 33 31 30 32 33 33 33 34 35 35
20 20 22 24 26 26 26 27 28 30 31 32 33 34 35 36 38 42 44 41 39 39 41 41 41 42 43 43 41 37 35 35 36 37 39 41 39 33 31 33 36 35 32 31 32 33 33 30 24 18 19 23 26 30 32 33 34 34 33 33 34 34 35
18 18 20 22 23 24 25 25 27 29 30 31 32 34 36 36 38 41 45 44 40 39 41 42 42 42 43 43 41 38 34 33 34 35 36 38 37 33 28 28 31 31 29 26 26 26 25 22 16 11 14 17 19 25 30 33 34 33 32 32 32 32 32
Wind_Direction
207 213 227 235 248 258 260 263 266 277 294 290 291 296 299 307 309 306 305 302 305 310 308 306 312 313 307 304 299 295 296 294 287 281 278 275 268 260 254 249 249 251 248 243 244 243 239 241 240 234 234 235 236 237 237 239 240 241 239 236 234 232 231
219 230 241 246 254 262 264 264 265 270 277 277 281 287 292 299 306 309 308 305 306 309 310 310 315 316 312 311 308 302 301 300 299 291 282 282 280 270 258 250 246 247 249 244 240 240 238 240 243 238 232 231 233 236 236 237 237 238 238 237 237 235 232
231 238 245 250 254 261 265 266 266 269 275 276 274 280 288 295 301 307 307 304 302 303 307 309 311 312 311 311 310 306 303 302 303 296 288 289 288 276 262 252 245 242 245 244 240 241 238 234 236 239 237 233 233 237 238 237 235 235 236 237 237 236 232
242 246 249 252 254 257 259 262 268 269 273 277 278 281 285 287 291 298 304 305 303 303 304 305 306 307 308 309 308 304 301 301 302 299 295 292 285 278 268 255 245 241 242 243 245 246 240 234 232 235 238 238 240 244 243 240 238 235 234 235 236 235 233
251 252 256 259 258 259 257 257 264 268 268 270 275 281 283 283 288 295 302 305 308 308 305 303 304 304 304 306 305 302 300 301 303 303 300 294 285 281 277 260 245 242 243 243 249 253 249 241 236 237 239 239 240 244 245 242 239 235 234 234 234 234 233
289 261 264 267 266 266 263 259 262 266 269 274 283 290 290 293 297 297 300 307 314 314 307 303 303 304 305 305 304 303 303 303 305 305 302 297 288 281 279 266 248 240 241 244 247 253 254 248 241 240 240 239 240 244 247 243 238 235 234 234 234 234 233
55 38 340 281 273 269 264 261 263 268 272 280 288 292 292 293 293 292 295 301 307 307 306 305 304 304 305 304 304 304 304 305 306 307 304 297 287 278 273 267 253 240 237 242 247 250 253 250 243 239 237 238 240 241 244 244 239 235 233 233 233 233 233
50 52 57 60 69 240 257 259 264 268 272 279 285 287 287 286 283 282 285 290 294 298 302 305 304 302 301 300 302 303 303 305 305 305 306 300 290 282 273 265 256 243 236 241 247 250 253 251 245 241 239 239 237 235 236 239 239 237 235 235 234 233 233
38 45 52 55 57 51 357 278 275 276 277 281 285 286 285 284 282 279 279 281 286 292 297 300 301 300 298 297 299 301 302 305 304 303 306 305 298 290 281 269 259 250 242 244 249 250 251 249 244 242 243 241 237 234 233 233 236 238 237 235 234 234 233
33 38 47 56 52 39 33 13 330 307 299 296 294 293 292 291 291 288 284 279 279 285 288 289 293 295 294 292 292 295 300 303 303 302 303 304 302 296 286 275 268 261 252 249 250 250 250 249 244 243 245 246 243 238 233 230 234 239 239 236 234 233 232
46 42 42 48 48 44 45 39 25 7 347 332 320 312 306 302 300 297 295 289 282 282 281 281 286 290 292 292 289 290 294 297 298 297 298 301 302 297 287 277 273 271 264 256 253 253 252 251 248 246 247 249 248 242 236 234 238 243 243 240 238 235 233
49 41 37 37 38 44 46 41 32 22 11 357 343 333 324 319 314 306 301 297 290 284 281 280 283 286 289 292 293 292 292 293 292 290 292 296 299 296 288 279 273 270 267 262 257 256 255 254 251 249 247 248 248 245 241 240 243 245 244 243 242 238 235
46 38 37 35 37 45 45 38 31 24 16 6 359 351 343 337 332 323 314 308 301 292 286 283 282 283 286 290 293 294 293 295 295 293 293 294 294 292 286 279 272 267 266 264 261 259 257 254 252 249 247 246 245 245 244 242 243 246 245 244 244 240 236
48 42 40 38 39 43 40 34 32 27 20 14 10 5 359 354 349 341 332 322 313 303 296 292 288 285 284 284 287 289 290 292 293 295 298 296 291 288 285 280 276 272 270 267 263 260 257 253 251 250 247 245 243 244 246 243 240 244 245 242 243 240 235
49 42 40 39 38 38 35 34 33 30 25 22 17 13 11 8 3 357 350 339 327 318 312 308 303 297 291 287 285 285 286 288 290 294 297 296 293 290 285 283 281 279 277 273 268 264 259 254 251 248 244 242 242 243 246 245 241 241 243 240 240 237 231
46 41 38 37 36 36 35 34 33 31 29 25 20 17 15 13 11 7 4 359 351 340 333 330 327 320 312 305 298 293 288 285 286 291 295 297 295 290 285 283 283 283 282 277 271 268 264 256 251 249 243 240 243 244 245 246 242 240 241 238 235 233 230
46 43 42 41 40 39 36 32 29 29 27 22 19 19 16 14 13 13 12 11 7 1 354 351 349 342 336 330 322 313 303 292 285 284 288 294 294 288 283 281 281 282 282 277 271 268 267 261 253 248 243 240 243 244 244 244 242 240 240 238 234 232 231
48 47 47 45 44 41 37 33 30 28 25 21 17 16 16 15 14 15 16 15 13 10 6 2 359 353 349 346 340 333 325 312 297 286 280 283 289 288 283 281 282 282 280 278 272 266 264 264 256 248 245 243 244 246 244 244 243 239 237 238 235 232 231
49 48 47 46 46 44 40 37 34 31 29 25 21 18 18 17 16 17 17 16 15 14 11 7 2 358 353 349 344 341 337 330 317 300 284 277 278 284 284 281 281 282 280 277 273 267 262 262 257 249 246 245 246 248 245 243 243 241 238 238 237 233 230
49 47 46 46 45 44 43 39 37 36 33 31 28 25 23 21 21 21 20 19 18 15 12 8 4 1 357 353 349 344 340 336 330 319 301 282 273 275 279 280 279 280 280 278 274 270 266 264 259 251 247 245 244 247 246 242 241 241 240 240 238 234 231
49 48 47 47 45 44 43 42 41 39 36 35 34 32 31 30 28 28 25 22 19 15 12 8 6 3 360 358 354 349 345 341 337 331 319 300 281 272 271 275 278 278 278 277 275 272 270 268 264 256 249 243 241 244 245 242 241 241 242 242 239 235 232
49 50 50 49 47 45 45 45 44 42 39 38 38 37 35 34 33 31 28 26 23 19 16 13 11 6 2 1 359 355 351 347 343 338 328 315 297 279 271 271 274 276 275 273 271 270 270 270 267 259 251 244 241 243 245 243 242 243 243 240 236 234 232
53 53 52 50 49 49 48 48 47 45 43 42 41 40 38 37 35 32 29 28 25 23 20 17 14 10 5 3 1 359 358 355 350 344 335 325 312 295 280 272 271 272 273 274 272 268 266 264 263 260 253 245 242 243 244 242 240 241 240 235 232 231 228
56 54 53 53 52 52 52 51 49 48 47 45 43 42 39 37 35 33 29 28 25 23 22 18 15 12 9 6 3 1 1 1 357 350 343 335 324 311 296 282 275 272 271 274 275 271 265 260 258 257 255 249 243 243 245 244 240 239 238 236 235 232 227
55 53 53 54 54 55 54 53 51 50 48 46 43 40 38 35 33 31 29 27 24 22 21 18 15 12 10 8 6 3 2 2 2 358 351 343 334 324 310 295 283 277 274 272 271 271 268 263 258 256 255 253 247 243 244 245 244 241 239 239 238 235 230
56 53 52 53 54 55 54 53 51 49 48 45 42 39 36 34 32 31 28 26 24 21 19 17 15 13 11 9 7 6 4 3 4 3 359 352 344 335 324 310 293 282 277 273 269 268 269 268 264 258 255 253 250 246 243 244 246 245 243 242 241 240 237
57 53 52 51 52 53 53 52 51 48 46 44 41 39 36 33 32 30 28 26 23 21 18 16 13 12 11 9 8 7 7 6 5 5 3 359 353 346 337 327 311 295 284 276 270 267 266 266 265 262 256 252 250 249 245 243 244 246 245 243 243 244 244
57 54 51 49 48 49 50 51 49 47 44 42 40 37 34 32 30 28 26 25 23 20 17 15 12 10 9 8 7 7 7 7 5 5 5 3 359 354 347 338 327 313 299 287 275 269 267 264 261 260 258 254 251 250 248 245 242 242 243 243 242 243 243
56 53 49 47 46 46 46 47 47 45 42 40 38 36 32 30 28 26 24 23 21 19 16 13 11 9 8 7 6 5 5 6 5 4 5 4 0 357 354 348 338 326 315 302 287 277 272 266 260 258 258 257 254 252 251 247 242 241 242 242 242 242 243
55 52 49 47 46 45 43 42 42 41 38 36 34 32 30 28 25 24 22 20 19 17 16 14 10 8 7 7 7 6 4 4 4 3 3 3 0 358 357 355 349 339 328 315 302 292 284 273 262 257 257 258 258 256 253 249 244 243 243 241 239 240 243
54 51 48 47 46 45 43 40 38 37 35 33 32 30 28 26 24 22 20 19 18 17 17 16 13 10 8 7 7 7 5 2 2 1 360 359 358 358 357 356 353 348 341 330 316 305 296 284 271 261 256 255 257 257 253 249 246 244 242 240 237 236 236
53 50 46 45 44 43 41 39 36 35 34 32 31 29 27 25 23 21 19 17 17 17 18 18 17 14 11 8 8 8 6 4 2 1 359 356 354 355 356 356 354 351 346 340 329 317 305 293 280 268 259 253 253 254 252 249 246 241 239 239 236 230 227
52 49 44 41 41 40 38 36 35 34 33 32 31 29 27 25 23 20 17 16 16 17 18 18 17 16 14 10 8 8 7 6 3 2 1 357 353 352 353 355 355 352 347 343 337 328 315 301 287 275 263 252 248 250 250 249 246 241 240 241 237 230 227
48 47 42 38 38 38 36 33 33 32 31 30 29 28 27 25 22 18 16 14 13 15 16 16 16 16 14 12 9 8 8 7 4 2 3 0 356 352 351 352 353 352 348 343 339 334 324 309 291 277 265 252 247 248 249 249 247 242 238 237 235 230 227
44 44 41 36 35 36 34 31 29 29 28 28 28 28 27 24 21 19 16 14 12 12 14 15 15 14 13 11 9 7 7 7 4 4 4 2 359 355 351 351 351 350 347 342 338 336 330 320 303 281 264 254 249 248 246 246 246 241 234 231 230 226 221
43 42 40 36 33 33 32 28 26 25 25 26 27 27 25 22 19 17 16 15 13 11 11 13 14 12 9 8 7 6 6 6 5 6 5 3 0 356 352 353 354 351 346 342 340 338 335 328 318 296 268 254 248 244 241 241 240 235 227 223 221 218 214
45 42 40 36 32 32 30 26 24 23 23 23 25 24 22 19 17 16 15 14 14 12 10 10 11 9 6 5 5 5 6 6 6 7 8 6 3 359 353 356 0 358 353 348 344 344 343 338 330 304 262 242 232 230 232 231 227 220 215 212 209 205 200